Minot, ND

8:27 PM CDT on May 25, 2017 (GMT -0500)
Minot International

Weather History for KMOT - June, 2013

Change the Weather History Date:

Wednesday, June 12, 2013

  Actual Average Record
Temperature  
Mean Temperature 65 °F 63 °F  
Max Temperature 74 °F 74 °F 94 °F (1987)
Min Temperature 56 °F 52 °F 30 °F (1929)
Cooling Degree Days 0 2  
Month to date cooling degree days 2 20  
Year to date cooling degree days 12 36  
Since 1 June cooling degree days 2 20  
Growing Degree Days 15 (Base 50)    
Moisture  
Dew Point 51 °F    
Average Humidity 63    
Maximum Humidity 80    
Minimum Humidity 46    
Precipitation  
Precipitation 0.02 in 0.12 in 1.75 in (2007)
Month to date precipitation 2.89 1.43  
Year to date precipitation 11.26 6.82  
Sea Level Pressure  
Sea Level Pressure 30.05 in    
Wind  
Wind Speed 6 mph (NW)    
Max Wind Speed 14 mph    
Max Gust Speed 18 mph    
Visibility 10 miles    
Events Rain    
T = Trace of Precipitation, MM = Missing Value Source: NWS Daily Summary

Daily Weather History Graph

Daily Weather History Graph

Search for Another Location

Airport or City:

Trip Planner

Search our weather history database for the weather conditions in past years. The results will help you decide how hot, cold, wet, or windy it might be!

Date:

Astronomy

Jun. 12, 2013 Rise Set
Actual Time 5:44 AM CDT 9:46 PM CDT
Civil Twilight 5:02 AM CDT 10:27 PM CDT
Nautical Twilight 4:04 AM CDT 11:25 PM CDT
Astronomical Twilight 2:25 AM CDT 1:06 AM CDT
Moon 9:39 AM CDT (6/12) No Moon Set
Length of Visible Light 17h 25m
Length of Day
16h 02m
Waxing Crescent, 14% of the Moon is Illuminated
Jun 12
Waxing Crescent
Jun 16
First Quarter
Jun 23
Full
Jun 29
Last Quarter
Jul 8
New

Hourly Weather History & Observations

Time (CDT) Temp. Dew Point Humidity Pressure Visibility Wind Dir Wind Speed Gust Speed Precip Events Conditions
12:54 AM 64.0 °F 52.0 °F 65% 29.96 in 10.0 mi WNW 8.1 mph - N/A   Overcast
1:54 AM 64.0 °F 52.0 °F 65% 29.97 in 10.0 mi NW 8.1 mph - N/A   Overcast
2:54 AM 62.1 °F 51.1 °F 67% 29.96 in 10.0 mi North 10.4 mph - N/A   Overcast
3:54 AM 60.1 °F 52.0 °F 75% 29.95 in 10.0 mi North 6.9 mph - N/A   Overcast
4:54 AM 60.1 °F 51.1 °F 72% 29.97 in 10.0 mi NNW 6.9 mph - N/A   Overcast
5:54 AM 57.9 °F 52.0 °F 81% 30.00 in 10.0 mi NNW 10.4 mph - 0.00 in Rain Light Rain
6:54 AM 57.0 °F 52.0 °F 83% 30.03 in 10.0 mi NNW 9.2 mph - 0.02 in Rain Light Rain
7:54 AM 57.0 °F 51.1 °F 81% 30.05 in 10.0 mi NNW 6.9 mph - 0.00 in   Overcast
8:54 AM 57.9 °F 52.0 °F 81% 30.07 in 10.0 mi NW 4.6 mph - 0.00 in   Overcast
9:54 AM 57.9 °F 51.1 °F 78% 30.09 in 10.0 mi WNW 6.9 mph - N/A   Overcast
10:54 AM 59.0 °F 51.1 °F 75% 30.09 in 10.0 mi West 8.1 mph - N/A   Scattered Clouds
11:54 AM 60.1 °F 50.0 °F 69% 30.09 in 10.0 mi West 6.9 mph - N/A   Clear
12:54 PM 64.0 °F 50.0 °F 60% 30.08 in 10.0 mi West 6.9 mph - N/A   Clear
1:54 PM 66.0 °F 48.9 °F 54% 30.08 in 10.0 mi West 5.8 mph - N/A   Clear
2:54 PM 70.0 °F 52.0 °F 53% 30.08 in 10.0 mi West 8.1 mph - N/A   Partly Cloudy
3:54 PM 71.1 °F 51.1 °F 49% 30.08 in 10.0 mi WNW 5.8 mph - N/A   Partly Cloudy
4:54 PM 73.0 °F 51.1 °F 46% 30.07 in 10.0 mi NW 6.9 mph - N/A   Clear
5:54 PM 73.9 °F 51.1 °F 45% 30.07 in 10.0 mi WNW 8.1 mph - N/A   Partly Cloudy
6:54 PM 73.0 °F 51.1 °F 46% 30.06 in 10.0 mi North 10.4 mph - N/A   Partly Cloudy
7:54 PM 71.1 °F 50.0 °F 47% 30.07 in 10.0 mi North 6.9 mph - N/A   Partly Cloudy
8:54 PM 66.0 °F 51.1 °F 59% 30.08 in 10.0 mi NE 4.6 mph - N/A   Clear
9:54 PM 64.9 °F 53.1 °F 65% 30.09 in 10.0 mi East 3.5 mph - N/A   Clear
10:54 PM 60.1 °F 53.1 °F 78% 30.11 in 10.0 mi Calm Calm - N/A   Clear
11:54 PM 59.0 °F 52.0 °F 78% 30.12 in 10.0 mi Calm Calm - N/A   Clear